Juneau, WI

2:19 AM CST on December 06, 2019 (GMT -0600)
Dodge County

Weather History for KUNU - October, 2019

Change the Weather History Date:

Friday, October 25, 2019

  Actual Average Record
Temperature  
Mean Temperature 36 °F -  
Max Temperature 46 °F 53 °F 76 °F (1973)
Min Temperature 26 °F 39 °F 21 °F (1981)
Degree Days  
Heating Degree Days 29    
Moisture  
Dew Point 27 °F    
Average Humidity 74    
Maximum Humidity 100    
Minimum Humidity 40    
Precipitation  
Precipitation 0.00 in - - ()
Sea Level Pressure  
Sea Level Pressure 30.30 in    
Wind  
Wind Speed 1 mph ()    
Max Wind Speed 12 mph    
Max Gust Speed 17 mph    
Visibility 9.5 miles    
Events      
Averages and records for this station are not official NWS values.
T = Trace of Precipitation, MM = Missing Value Source: Averaged Metar Reports

Daily Weather History Graph

Daily Weather History Graph

Search for Another Location

Airport or City:

Astronomy

Oct. 25, 2019 Rise Set
Actual Time 7:20 AM CDT 5:56 PM CDT
Civil Twilight 6:51 AM CDT 6:25 PM CDT
Nautical Twilight 6:18 AM CDT 6:58 PM CDT
Astronomical Twilight 5:45 AM CDT 7:31 PM CDT
Moon 3:54 AM CDT (10/25) 5:05 PM CDT (10/25)
Length of Visible Light 11h 33m
Length of Day
10h 35m
Waning Crescent, 9% of the Moon is Illuminated
Oct 25
Waning Crescent
Oct 27
New
Nov 4
First Quarter
Nov 12
Full
Nov 19
Last Quarter

Hourly Weather History & Observations

Time (CDT) Temp. Windchill Dew Point Humidity Pressure Visibility Wind Dir Wind Speed Gust Speed Precip Events Conditions
12:35 AM 30.7 °F - 30.2 °F 98% 30.35 in 10.0 mi Calm Calm - N/A   Clear
1:55 AM - - - N/A% 30.34 in 10.0 mi Calm Calm - N/A   Scattered Clouds
2:15 AM 30.7 °F - 30.4 °F 99% 30.34 in 10.0 mi Calm Calm - N/A   Clear
2:55 AM 30.6 °F - 30.0 °F 98% 30.34 in 10.0 mi Calm Calm - N/A   Clear
3:15 AM 30.2 °F - 29.8 °F 99% 30.34 in 10.0 mi Calm Calm - N/A   Clear
3:35 AM 30.2 °F - 29.5 °F 97% 30.34 in 7.0 mi Calm Calm - N/A   Clear
3:55 AM 29.7 °F - 29.3 °F 99% 30.34 in 7.0 mi Calm Calm - N/A   Clear
4:15 AM 29.3 °F - 29.1 °F 99% 30.34 in 5.0 mi Calm Calm - N/A   Clear
4:35 AM 29.3 °F - 29.1 °F 99% 30.35 in 5.0 mi Calm Calm - N/A   Clear
4:55 AM 29.3 °F - 29.1 °F 99% 30.34 in 10.0 mi Calm Calm - N/A   Clear
5:15 AM 29.3 °F - 29.1 °F 99% 30.35 in 10.0 mi Calm Calm - N/A   Clear
5:35 AM 28.6 °F - 28.2 °F 99% 30.36 in 10.0 mi Calm Calm - N/A   Scattered Clouds
5:55 AM 28.4 °F - 28.2 °F 99% 30.37 in 7.0 mi Calm Calm - N/A   Clear
6:15 AM 27.5 °F - 27.3 °F 99% 30.36 in 7.0 mi Calm Calm - N/A   Scattered Clouds
6:35 AM 27.9 °F - 27.7 °F 99% 30.35 in 7.0 mi Calm Calm - N/A   Clear
6:55 AM 27.5 °F - 27.5 °F 100% 30.35 in 7.0 mi Calm Calm - N/A   Clear
7:15 AM 27.1 °F - 27.0 °F 99% 30.34 in 7.0 mi Calm Calm - N/A   Clear
7:35 AM 26.6 °F - 26.4 °F 99% 30.35 in 10.0 mi Calm Calm - N/A   Clear
7:55 AM 26.6 °F - 26.4 °F 99% 30.35 in 10.0 mi Calm Calm - N/A   Clear
8:15 AM 27.5 °F - 27.1 °F 99% 30.36 in 10.0 mi Calm Calm - N/A   Clear
8:35 AM 27.1 °F - 26.8 °F 99% 30.37 in 10.0 mi Calm Calm - N/A   Clear
8:55 AM 28.0 °F - 27.5 °F 98% 30.37 in 10.0 mi Calm Calm - N/A   Clear
9:15 AM 30.0 °F - 29.5 °F 98% 30.37 in 10.0 mi Calm Calm - N/A   Clear
9:35 AM 32.0 °F - 31.1 °F 96% 30.36 in 10.0 mi Calm Calm - N/A   Clear
9:55 AM 34.7 °F - 31.8 °F 89% 30.35 in 10.0 mi Calm Calm - N/A   Clear
10:15 AM 37.4 °F - 31.3 °F 79% 30.35 in 10.0 mi Calm Calm - N/A   Clear
10:35 AM 38.8 °F - 29.5 °F 69% 30.35 in 10.0 mi Calm Calm - N/A   Clear
10:55 AM 39.4 °F 37.2 °F 27.0 °F 61% 30.34 in 10.0 mi WSW 3.5 mph - N/A   Clear
11:35 AM 41.2 °F 37.3 °F 28.0 °F 60% 30.33 in 10.0 mi SW 5.8 mph - N/A   Clear
11:55 AM 41.9 °F 37.5 °F 27.9 °F 58% 30.33 in 10.0 mi West 6.9 mph - N/A   Clear
12:15 PM 42.6 °F 39.9 °F 27.0 °F 54% 30.33 in 10.0 mi West 4.6 mph - N/A   Clear
12:55 PM 43.7 °F 37.7 °F 27.0 °F 52% 30.32 in 10.0 mi SW 11.5 mph 17.3 mph N/A   Clear
1:15 PM 43.9 °F 39.9 °F 26.4 °F 50% 30.30 in 10.0 mi WSW 6.9 mph - N/A   Clear
1:35 PM 44.6 °F 41.4 °F 24.8 °F 46% 30.29 in 10.0 mi WSW 5.8 mph - N/A   Clear
1:55 PM 45.0 °F 40.1 °F 25.2 °F 46% 30.28 in 10.0 mi SW 9.2 mph - N/A   Clear
2:35 PM 45.5 °F 43.2 °F 24.1 °F 43% 30.26 in 10.0 mi WSW 4.6 mph - N/A   Clear
2:55 PM 45.7 °F 44.4 °F 24.1 °F 43% 30.25 in 10.0 mi West 3.5 mph - N/A   Clear
3:15 PM 45.9 °F 43.6 °F 23.7 °F 42% 30.24 in 10.0 mi SW 4.6 mph - N/A   Clear
3:35 PM 46.4 °F 44.3 °F 23.2 °F 40% 30.24 in 10.0 mi SW 4.6 mph - N/A   Clear
3:55 PM 46.2 °F 44.1 °F 23.4 °F 41% 30.24 in 10.0 mi SW 4.6 mph - N/A   Clear
4:15 PM 46.0 °F - 22.8 °F 40% 30.23 in 10.0 mi Calm Calm - N/A   Clear
4:35 PM 45.9 °F 43.6 °F 23.0 °F 41% 30.23 in 10.0 mi WSW 4.6 mph - N/A   Clear
4:55 PM 45.7 °F - 24.4 °F 43% 30.23 in 10.0 mi Calm Calm - N/A   Clear
5:15 PM 45.0 °F - 25.3 °F 46% 30.23 in 10.0 mi Calm Calm - N/A   Clear
5:55 PM 42.8 °F - 24.8 °F 49% 30.23 in 10.0 mi Calm Calm - N/A   Clear
6:15 PM 41.4 °F - 25.9 °F 54% 30.23 in 10.0 mi Calm Calm - N/A   Clear
6:35 PM - - - N/A% 30.23 in 10.0 mi Calm Calm - N/A   Clear
6:55 PM 40.3 °F - 24.8 °F 54% 30.23 in 10.0 mi Calm Calm - N/A   Clear
7:15 PM 39.2 °F - 24.6 °F 56% 30.23 in 10.0 mi Calm Calm - N/A   Clear
7:35 PM 39.0 °F - 24.3 °F 55% 30.22 in 10.0 mi Calm Calm - N/A   Clear
7:55 PM 37.2 °F - 25.2 °F 62% 30.22 in 10.0 mi Calm Calm - N/A   Clear
8:55 PM 35.8 °F - 24.8 °F 64% 30.20 in 10.0 mi Calm Calm - N/A   Clear
9:15 PM 34.9 °F - 26.1 °F 70% 30.21 in 10.0 mi Calm Calm - N/A   Clear
9:55 PM 35.2 °F - 24.6 °F 65% 30.21 in 10.0 mi Calm Calm - N/A   Clear
10:15 PM 34.7 °F - 24.8 °F 67% 30.20 in 10.0 mi Calm Calm - N/A   Clear
10:35 PM 35.1 °F - 24.3 °F 65% 30.20 in 10.0 mi Calm Calm - N/A   Clear
10:55 PM 34.0 °F - 25.3 °F 71% 30.20 in 10.0 mi Calm Calm - N/A   Clear
11:55 PM 33.1 °F 30.0 °F 25.9 °F 75% 30.19 in 10.0 mi South 3.5 mph - N/A   Clear